Starlink 2704

operational
NORAD ID: 48643 Int'l Des: 2021-044 Owner: SPXS Country: US Constellation: starlink
LEOCIRCULARSTARLINK_TYPE

关于 Starlink 2704

正在加载描述...

实时位置

正在加载3D地球...

即将过境

高度历史

Altitude vs Time

uPlot chart will show altitude changes over time

两行轨道根数

1 48643U 21044F 25304.53440949 .00012324 00000-0 84464-3 0 9999
2 48643 53.0557 341.4116 0001392 95.5684 264.5464 15.06406693244241
Epoch: Oct 31, 2025 • Age: 15 hours

当前状态

高度 551.2 km
速度 7.59 km/s
星下点 -14.54°S, 68.56°E
发射日期 May 26, 2021
运行时间 4.4 years
类型 internet

技术详情

分类 Payload
质量 260.00 kg
干质量 248.00 kg
总质量 260.00 kg
长度 0.20 m
直径 2.80 m
跨度 9.00 m
形状 Box + pan
制造商 SPXS
平台类型 Starlink
阶段状态 In Orbit
所有者/国家 SPXS/US

大型星座

Loading constellations...